Modesto City Co-Harry Sham Field
KMOD : now visible

Airfield :











YOU CAN JOIN US ON...

 
LOGIN :

Register | Disclaimer

   EN    FR    IT 

 









Legend :    VFR   Marginal VFR   IFR   Intensive IFR   Very Intensive IFR
Visi :
Ceiling :
>= 8 km
>= 3000ft
5 to 8 km
1000 to 3000 ft
1500m to 5 km
500 to 1000 ft
800 to 1500m
200 to 500 ft
< 800m
< 200 ft
Symbols :   Thunderstorms  Fog  Heavy snow  Heavy precipitations  Wind > 20 kt






- Airport Elevation : 97 ft
- IATA code : MOD


KMOD - Modesto City Co-Harry Sham Field

CURRENT METAR :
  • 090953Z AUTO 35004KT 10SM CLR 07/02 A3018 RMK AO2 SLP219 T00720022

EXPIRED METARs :
  • 090853Z AUTO 01004KT 10SM BKN065 08/02 A3020 RMK AO2 SLP225 T00830022 58005
  • 090753Z AUTO 02005KT 10SM BKN065 08/02 A3021 RMK AO2 SLP229 T00830022 401500039

TAF KMOD
Valid from the 09 at 06:00 until the 10 at 06:00 UTC


090520Z 0906/1006 31008KT P6SM BKN100
FM091900 12007KT P6SM SHRA SCT025 OVC060
TEMPO 0921/0923 3SM -TSRA OVC015CB
KZOA FIR / North America



MET'MAP, your aeronautical weather chart ! - Copyright ORBIFLY December 2007 - Disclaimer

ORBIFLY MET'MAP TEAM :

Programming & Development : Alexandra Zaïnal
Concept & original design : Baudouin d'Aumeries
Assistance for programming : Marc-Olivier Méhu
Technical & hardware support : Manuel Goepfert

Contact : metmap@orbifly.com




SOURCES & CREDITS :

   NOAA       Earth
Advisory